When you browse on this site, cookies collect data to enhance your experience and personalize the content and advertising you see.
Visit our Privacy Policy to learn more. By continuing to use the site, you agree to this use of cookies and data.
  • In Portugal
  • List of Countries
  • For 7 days
  • Water Temperature
  • Satellite Maps
  • Weather Map
  • Weather Widgets
  • user-avatar
    Login

    Hourly Weather Karak

    Today, 19 January, Saturday

    Time Temperature Precipitation Wind Pressure Humidity
    00:00 +7°C° 0 mm 1 mps 683 mmHg 70%
    01:00 +6°C° 0 mm 1 mps 683 mmHg 71%
    02:00 +6°C° 0 mm 1 mps 683 mmHg 73%
    03:00 +6°C° 0 mm 1 mps 683 mmHg 73%
    04:00 +5°C° 0 mm 2 mps 683 mmHg 73%
    05:00 +5°C° 0 mm 2 mps 683 mmHg 73%
    06:00 +5°C° 0 mm 2 mps 683 mmHg 71%
    07:00 +6°C° 0 mm 2 mps 683 mmHg 68%
    08:00 +6°C° 0 mm 2 mps 684 mmHg 65%
    09:00 +7°C° 0 mm 2 mps 684 mmHg 58%
    10:00 +9°C° 0 mm 2 mps 684 mmHg 52%
    11:00 +10°C° 0 mm 2 mps 684 mmHg 45%
    12:00 +12°C° 0 mm 1 mps 684 mmHg 41%
    13:00 +12°C° 0 mm 1 mps 683 mmHg 38%
    14:00 +13°C° 0 mm 1 mps 683 mmHg 34%
    15:00 +12°C° 0 mm 1 mps 683 mmHg 37%
    16:00 +12°C° 0 mm 1 mps 683 mmHg 39%
    17:00 +11°C° 0 mm 1 mps 683 mmHg 41%
    18:00 +11°C° 0 mm 1 mps 683 mmHg 43%
    19:00 +10°C° 0 mm 1 mps 683 mmHg 45%
    20:00 +9°C° 0 mm 1 mps 683 mmHg 47%
    21:00 +9°C° 0 mm 1 mps 683 mmHg 48%
    22:00 +9°C° 0 mm 1 mps 683 mmHg 48%
    23:00 +8°C° 0 mm 1 mps 683 mmHg 48%

    Tomorrow, 20 January, Sunday

    Time Temperature Precipitation Wind Pressure Humidity
    00:00 +7°C° 0 mm 2 mps 683 mmHg 47%
    01:00 +7°C° 0 mm 2 mps 683 mmHg 46%
    02:00 +7°C° 0 mm 2 mps 683 mmHg 45%
    03:00 +6°C° 0 mm 2 mps 682 mmHg 43%
    04:00 +6°C° 0 mm 2 mps 682 mmHg 41%
    05:00 +6°C° 0 mm 2 mps 682 mmHg 40%
    06:00 +7°C° 0 mm 2 mps 682 mmHg 38%
    07:00 +7°C° 0 mm 2 mps 683 mmHg 35%
    08:00 +7°C° 0 mm 2 mps 683 mmHg 33%
    09:00 +9°C° 0 mm 2 mps 683 mmHg 30%
    10:00 +12°C° 0 mm 2 mps 683 mmHg 27%
    11:00 +14°C° 0 mm 2 mps 683 mmHg 23%
    12:00 +14°C° 0 mm 2 mps 683 mmHg 22%
    13:00 +15°C° 0 mm 2 mps 682 mmHg 20%
    14:00 +15°C° 0 mm 1 mps 682 mmHg 19%
    15:00 +15°C° 0 mm 1 mps 682 mmHg 21%
    16:00 +14°C° 0 mm 1 mps 681 mmHg 24%
    17:00 +13°C° 0 mm 1 mps 681 mmHg 26%
    18:00 +12°C° 0 mm 1 mps 681 mmHg 27%
    19:00 +12°C° 0 mm 1 mps 681 mmHg 27%
    20:00 +11°C° 0 mm 1 mps 681 mmHg 28%
    21:00 +11°C° 0 mm 1 mps 682 mmHg 27%
    22:00 +10°C° 0 mm 2 mps 682 mmHg 25%
    23:00 +10°C° 0 mm 2 mps 682 mmHg 24%

    Day after tomorrow, 21 January, Monday

    Time Temperature Precipitation Wind Pressure Humidity
    00:00 +10°C° 0 mm 2 mps 681 mmHg 27%
    01:00 +10°C° 0 mm 2 mps 681 mmHg 30%
    02:00 +10°C° 0 mm 2 mps 681 mmHg 32%
    03:00 +10°C° 0 mm 2 mps 681 mmHg 33%
    04:00 +10°C° 0 mm 2 mps 681 mmHg 33%
    05:00 +9°C° 0 mm 2 mps 680 mmHg 34%
    06:00 +10°C° 0 mm 2 mps 681 mmHg 34%
    07:00 +11°C° 0 mm 1 mps 681 mmHg 33%
    08:00 +11°C° 0 mm 1 mps 682 mmHg 33%
    09:00 +13°C° 0 mm 2 mps 682 mmHg 30%
    10:00 +14°C° 0 mm 2 mps 682 mmHg 27%
    11:00 +15°C° 0 mm 2 mps 683 mmHg 25%
    12:00 +16°C° 0 mm 3 mps 682 mmHg 24%
    13:00 +16°C° 0 mm 3 mps 682 mmHg 23%
    14:00 +17°C° 0 mm 4 mps 681 mmHg 22%
    15:00 +15°C° 0 mm 4 mps 681 mmHg 24%
    16:00 +14°C° 0 mm 3 mps 681 mmHg 27%
    17:00 +13°C° 0 mm 3 mps 681 mmHg 30%
    18:00 +13°C° 0 mm 2 mps 682 mmHg 35%
    19:00 +12°C° 0 mm 1 mps 682 mmHg 40%
    20:00 +11°C° 0 mm 1 mps 682 mmHg 45%
    21:00 +11°C° 0 mm 1 mps 682 mmHg 46%
    22:00 +10°C° 0 mm 1 mps 682 mmHg 47%
    23:00 +10°C° 0 mm 1 mps 682 mmHg 49%

    22 January, Tuesday

    Time Temperature Precipitation Wind Pressure Humidity
    00:00 +10°C° 0 mm 1 mps 681 mmHg 49%
    01:00 +9°C° 0 mm 1 mps 681 mmHg 49%
    02:00 +9°C° 0 mm 1 mps 681 mmHg 50%
    03:00 +9°C° 0 mm 1 mps 681 mmHg 51%
    04:00 +8°C° 0 mm 1 mps 681 mmHg 52%
    05:00 +7°C° 0 mm 0 mps 680 mmHg 53%
    06:00 +9°C° 0 mm 1 mps 681 mmHg 50%
    07:00 +10°C° 0 mm 1 mps 681 mmHg 47%
    08:00 +11°C° 0 mm 1 mps 682 mmHg 45%
    09:00 +12°C° 0 mm 1 mps 682 mmHg 40%
    10:00 +13°C° 0 mm 1 mps 682 mmHg 35%
    11:00 +14°C° 0 mm 1 mps 682 mmHg 31%
    12:00 +15°C° 0 mm 1 mps 682 mmHg 29%
    13:00 +16°C° 0 mm 2 mps 681 mmHg 27%
    14:00 +16°C° 0 mm 2 mps 681 mmHg 25%
    15:00 +16°C° 0 mm 2 mps 681 mmHg 28%
    16:00 +15°C° 0 mm 2 mps 680 mmHg 31%
    17:00 +14°C° 0 mm 2 mps 680 mmHg 34%
    18:00 +13°C° 0 mm 1 mps 680 mmHg 37%
    19:00 +12°C° 0 mm 1 mps 680 mmHg 39%
    20:00 +10°C° 0 mm 0 mps 680 mmHg 42%
    21:00 +10°C° 0 mm 0 mps 680 mmHg 43%
    22:00 +9°C° 0 mm 0 mps 680 mmHg 43%
    23:00 +9°C° 0 mm 0 mps 680 mmHg 44%

    23 January, Wednesday

    Time Temperature Precipitation Wind Pressure Humidity
    00:00 +8°C° 0 mm 0 mps 679 mmHg 45%
    01:00 +9°C° 0 mm 1 mps 679 mmHg 45%
    02:00 +9°C° 0 mm 1 mps 679 mmHg 46%
    03:00 +8°C° 0 mm 1 mps 679 mmHg 46%
    04:00 +8°C° 0 mm 1 mps 679 mmHg 45%
    05:00 +8°C° 0 mm 1 mps 678 mmHg 45%
    06:00 +9°C° 0 mm 1 mps 679 mmHg 42%
    07:00 +8°C° 0 mm 2 mps 679 mmHg 39%
    08:00 +9°C° 0 mm 2 mps 680 mmHg 36%
    09:00 +12°C° 0 mm 2 mps 680 mmHg 32%
    10:00 +13°C° 0 mm 1 mps 680 mmHg 28%
    11:00 +15°C° 0 mm 1 mps 681 mmHg 23%
    12:00 +15°C° 0 mm 1 mps 680 mmHg 21%
    13:00 +16°C° 0 mm 1 mps 680 mmHg 19%
    14:00 +18°C° 0 mm 1 mps 679 mmHg 17%
    15:00 +16°C° 0 mm 1 mps 679 mmHg 19%
    16:00 +15°C° 0 mm 1 mps 678 mmHg 21%
    17:00 +15°C° 0 mm 1 mps 678 mmHg 23%
    18:00 +14°C° 0 mm 1 mps 678 mmHg 23%
    19:00 +14°C° 0 mm 2 mps 678 mmHg 22%
    20:00 +14°C° 0 mm 2 mps 678 mmHg 22%
    21:00 +13°C° 0 mm 2 mps 678 mmHg 23%
    22:00 +12°C° 0 mm 3 mps 678 mmHg 24%
    23:00 +11°C° 0 mm 3 mps 678 mmHg 24%

    24 January, Thursday

    Time Temperature Precipitation Wind Pressure Humidity
    00:00 +11°C° 0 mm 3 mps 678 mmHg 24%
    01:00 +11°C° 0 mm 3 mps 677 mmHg 24%
    02:00 +10°C° 0 mm 2 mps 677 mmHg 24%
    03:00 +10°C° 0 mm 2 mps 677 mmHg 23%
    04:00 +10°C° 0 mm 2 mps 677 mmHg 23%
    05:00 +10°C° 0 mm 2 mps 677 mmHg 22%
    06:00 +10°C° 0 mm 2 mps 677 mmHg 22%
    07:00 +11°C° 0 mm 3 mps 677 mmHg 22%
    08:00 +12°C° 0 mm 3 mps 678 mmHg 21%
    09:00 +14°C° 0 mm 3 mps 678 mmHg 19%
    10:00 +17°C° 0 mm 4 mps 679 mmHg 18%
    11:00 +19°C° 0 mm 4 mps 679 mmHg 16%
    12:00 +20°C° 0 mm 5 mps 679 mmHg 16%
    13:00 +20°C° 0 mm 6 mps 679 mmHg 15%
    14:00 +21°C° 0 mm 7 mps 678 mmHg 15%
    15:00 +20°C° 0 mm 6 mps 678 mmHg 16%
    16:00 +19°C° 0 mm 5 mps 679 mmHg 18%
    17:00 +18°C° 0 mm 4 mps 679 mmHg 20%
    18:00 +17°C° 0 mm 3 mps 679 mmHg 24%
    19:00 +15°C° 0 mm 2 mps 679 mmHg 29%
    20:00 +14°C° 0 mm 1 mps 679 mmHg 33%
    21:00 +14°C° 0 mm 1 mps 679 mmHg 32%
    22:00 +13°C° 0 mm 1 mps 679 mmHg 31%
    23:00 +13°C° 0 mm 2 mps 679 mmHg 30%
    Show more